[[[{"header":{"parameterUnit":"kt","parameterCategory":2,"dx":1,"dy":1,"la1":30.253999710083008,"la2":30.299108505249023,"lo1":-89.0895004272461,"lo2":-89.04439544677734,"nx":28,"ny":28,"refTime":"2022-10-01T21:00:00:Z","depth":0,"parameterNumber":1,"parameterNumberName":"U-component_of_WINDS"},"data":[0.789,0.7884,0.7892,0.789,0.7896,0.7896,0.7898,0.7902,0.7907,0.7908,0.791,0.7917,0.7926,0.793,0.7933,0.7936,0.7936,0.7929,0.7934,0.7958,0.7961,0.7965,0.7966,0.793,0.793,0.7908,0.7908,0.7907,0.7909,0.7915,0.7916,0.7922,0.7923,0.7934,0.794,0.794,0.7939,0.7945,0.7947,0.7949,0.7951,0.7961,0.7964,0.7963,0.7967,0.7963,0.7962,0.7963,0.7989,0.799,0.7959,0.7959,0.7959,0.7959,0.7959,0.7959,0.7945,0.7942,0.7949,0.795,0.7955,0.7959,0.7957,0.7965,0.7966,0.797,0.7979,0.7978,0.7985,0.7992,0.7997,0.7997,0.8003,0.8,0.7999,0.7997,0.7995,0.8025,0.7998,0.7998,0.7998,0.7998,0.7998,0,0.7974,0.798,0.7981,0.7984,0.7985,0.7988,0.7992,0.7992,0.8007,0.8007,0.8007,0.8009,0.8012,0.8013,0.8018,0.8022,0.8033,0.8035,0.8033,0.8027,0.8023,0.8025,0.8066,0.8035,0.8035,0.8036,0.8036,0.8036,0.801,0.8005,0.8016,0.8016,0.802,0.8019,0.802,0.8034,0.8034,0.8041,0.8037,0.8039,0.804,0.804,0.8049,0.8051,0.8056,0.8043,0.8056,0.8052,0.8055,0.8054,0.8054,0.804,0.8039,0.8039,0.8038,0,0.803,0.8042,0.8036,0.8047,0.8049,0.8043,0.8053,0.805,0.8058,0.8055,0.8055,0.8067,0.8067,0.8078,0.808,0.8086,0.8077,0.8082,0.8075,0.8076,0.8065,0.8066,0.803,0.8025,0.8064,0.8064,0.8064,0,0.8065,0.8058,0.8075,0.807,0.8063,0.8076,0.8069,0.8074,0.808,0.8078,0.8092,0.8089,0.8103,0.8103,0.8111,0.8106,0.8106,0.811,0.8112,0.8107,0.8107,0.8106,0.8107,0.8117,0.8117,0.8118,0.8118,0,0.8094,0.8094,0.8087,0.8089,0.8099,0.8096,0.81,0.8106,0.8106,0.8109,0.8109,0.8111,0.8112,0.8114,0.8124,0.8132,0.8118,0.8131,0.8121,0.8121,0.8115,0.8115,0.8083,0.8118,0.8118,0.8118,0.8118,0,0.8122,0.8124,0.8113,0.8122,0.8121,0.8117,0.812,0.8118,0.8124,0.8128,0.813,0.814,0.8136,0.8149,0.8144,0.8151,0.8151,0.8155,0.8154,0.8153,0.8166,0.8145,0.8113,0.811,0.8154,0.8155,0.8155,0,0.8152,0.8143,0.8154,0.8143,0.8141,0.8156,0.8151,0.8155,0.8161,0.816,0.8167,0.8165,0.8176,0.8177,0.8173,0.8179,0.817,0.8181,0.8179,0.8178,0.8176,0.8148,0.8139,0.8119,0.8159,0.8159,0.8158,0,0.8176,0.8187,0.8184,0.8186,0.8193,0.8191,0.8186,0.8186,0.8185,0.8188,0.8183,0.8181,0.819,0.819,0.8198,0.8193,0.8177,0.8203,0.8203,0.8197,0.8162,0.8154,0.8151,0.8183,0.8182,0.8182,0.8162,0,0.8216,0.8212,0.8205,0.8209,0.8209,0.8202,0.8212,0.8211,0.8218,0.8224,0.8218,0.8223,0.8223,0.8222,0.8228,0.8214,0.8218,0.8226,0.8238,0.8219,0.8213,0.821,0.8247,0.8247,0.8248,0.8248,0,0,0.824,0.8235,0.8246,0.8241,0.8241,0.8256,0.8248,0.825,0.8253,0.8253,0.826,0.8256,0.8259,0.8251,0.8246,0.8246,0.8244,0.825,0.8228,0.8226,0.8224,0.8217,0.8214,0.8249,0.8249,0.8249,0.8249,0,0.8256,0.826,0.8252,0.8254,0.8258,0.8264,0.8263,0.8269,0.8272,0.8265,0.8277,0.8274,0.827,0.8272,0.8273,0.8252,0.826,0.8251,0.8237,0.8231,0.8229,0.8226,0.8219,0.8216,0.825,0.825,0.825,0,0.8281,0.8285,0.8282,0.8283,0.8286,0.8282,0.8297,0.8292,0.829,0.8304,0.8297,0.8301,0.8304,0.8295,0.8291,0.8296,0.8273,0.8282,0.828,0.8279,0.8274,0.8271,0.8268,0.8306,0.8306,0.8306,0,0,0.8293,0.829,0.8298,0.8287,0.8288,0.8297,0.8295,0.8302,0.8304,0.8305,0.8309,0.8311,0.8309,0.8308,0.8306,0.8294,0.8296,0.8288,0.8286,0.8283,0.8281,0.8276,0.8273,0.8307,0.8307,0.8307,0,0,0.8299,0.8308,0.8314,0.8303,0.8305,0.8312,0.8305,0.8313,0.8313,0.8314,0.8325,0.8325,0.8317,0.8319,0.8326,0.831,0.8321,0.832,0.8308,0.8305,0.8302,0.8301,0.8341,0,0,0,0,0,0.8319,0.8307,0.8313,0.8312,0.8312,0.8309,0.8309,0.8317,0.8325,0.832,0.8325,0.8333,0.8325,0.8332,0.8331,0.8322,0.8314,0.8313,0.8312,0.8294,0.8291,0.8288,0,0,0,0,0,0,0.8319,0.8319,0.8313,0.8319,0.8319,0.831,0.8325,0.8327,0.8326,0.8328,0.8332,0.8333,0.834,0.8333,0.8332,0.8324,0.8341,0.8314,0.8313,0.8312,0.8293,0.829,0.8288,0,0,0,0,0,0.8319,0.8319,0.8317,0.8319,0.8319,0.8328,0.8325,0.8327,0.8327,0.8334,0.8335,0.8333,0.834,0.834,0.8332,0.8324,0.8342,0.8341,0.8313,0.8312,0.8311,0.8292,0,0,0,0,0,0,0.8319,0.832,0.8317,0.8317,0.8324,0.8328,0.8329,0.8327,0.8333,0.8334,0.8335,0.8336,0.8339,0.8339,0.8339,0.8323,0.8342,0.8342,0.8342,0.8312,0.8312,0.8311,0,0,0,0,0,0,0.8321,0.832,0.8317,0.8323,0.8324,0.8329,0.833,0.8324,0.8333,0.8334,0.8335,0.8336,0.8339,0.8339,0.8339,0.833,0.8343,0.8342,0.8342,0.8342,0.8312,0.8311,0,0,0,0,0,0,0.8321,0.8321,0.8323,0.8324,0.8325,0.8329,0.8324,0.8324,0.8338,0.8333,0.834,0.834,0.8339,0.8339,0.8339,0.833,0.833,0.8343,0.8342,0.8342,0.8342,0,0,0,0,0,0,0,0.8321,0.832,0.8315,0.8325,0.8326,0.8321,0.8321,0.8321,0.8338,0.8339,0.8339,0.834,0.8344,0.8344,0.8344,0.833,0,0,0.8343,0.8342,0,0,0,0,0,0,0,0,0.832,0.832,0.8315,0.8315,0.8315,0.8321,0.8321,0.8321,0.8338,0.8339,0.8339,0.834,0.8344,0.8344,0.8344,0,0,0,0,0,0,0,0,0,0,0,0,0,0,0,0.8315,0.8315,0,0.8321,0.8321,0.8321,0.8338,0.8339,0.8339,0.834,0.8344,0.8344,0.8344,0,0,0,0,0,0,0,0,0,0,0,0,0,0,0,0,0,0,0,0,0,0,0,0,0,0,0,0,0,0,0,0,0,0,0,0,0,0,0,0,0,0,0,0,0,0,0,0,0,0,0,0,0,0,0,0,0,0,0,0,0,0,0,0,0,0,0,0,0]}],[{"header":{"parameterUnit":"kt","parameterCategory":2,"dx":1,"dy":1,"la1":30.253999710083008,"la2":30.299108505249023,"lo1":-89.0895004272461,"lo2":-89.04439544677734,"nx":28,"ny":28,"refTime":"2022-10-01T21:00:00:Z","depth":0,"parameterNumber":2,"parameterNumberName":"V-component_of_WINDS"},"data":[-7.6096,-7.623,-7.6247,-7.6406,-7.6447,-7.6558,-7.6602,-7.666,-7.6709,-7.684,-7.6917,-7.6943,-7.6994,-7.7087,-7.7169,-7.7178,-7.7212,-7.725,-7.7254,-7.7074,-7.705,-7.7027,-7.6998,-7.7257,-7.7257,-7.7439,-7.7441,-7.7442,-7.5968,-7.6012,-7.61,-7.6196,-7.6272,-7.6247,-7.6319,-7.6383,-7.6481,-7.6541,-7.6617,-7.6732,-7.6822,-7.686,-7.6949,-7.7009,-7.7,-7.7032,-7.7028,-7.7037,-7.6845,-7.6815,-7.7038,-7.7038,-7.7038,-7.7038,-7.7038,-7.7038,-7.574,-7.5819,-7.5887,-7.5983,-7.6034,-7.6098,-7.6174,-7.6206,-7.6289,-7.6386,-7.6384,-7.6493,-7.6553,-7.6664,-7.6702,-7.6786,-7.6752,-7.679,-7.68,-7.681,-7.6821,-7.6562,-7.6801,-7.68,-7.68,-7.6799,-7.6799,0,-7.5578,-7.5587,-7.5671,-7.5762,-7.5831,-7.5901,-7.5966,-7.6014,-7.6029,-7.6097,-7.6196,-7.6254,-7.6368,-7.6461,-7.6544,-7.6576,-7.6552,-7.6549,-7.6576,-7.6581,-7.6576,-7.6583,-7.6272,-7.6542,-7.654,-7.6538,-7.6537,-7.6536,-7.5351,-7.544,-7.5516,-7.5573,-7.5613,-7.5704,-7.5761,-7.5768,-7.5827,-7.5906,-7.5973,-7.6065,-7.614,-7.6291,-7.6321,-7.6404,-7.6393,-7.6496,-7.6405,-7.6407,-7.6397,-7.6393,-7.6403,-7.6513,-7.6516,-7.6519,-7.6521,0,-7.5223,-7.5246,-7.5387,-7.5451,-7.547,-7.5562,-7.5615,-7.5691,-7.5711,-7.5818,-7.5843,-7.5873,-7.5967,-7.598,-7.6087,-7.6091,-7.624,-7.6226,-7.6222,-7.622,-7.6315,-7.6307,-7.6616,-7.6658,-7.6387,-7.639,-7.6392,0,-7.5039,-7.5153,-7.5181,-7.5261,-7.5389,-7.5393,-7.5518,-7.5547,-7.5599,-7.5683,-7.5659,-7.5738,-7.5741,-7.5821,-7.5826,-7.595,-7.5969,-7.5979,-7.5979,-7.5983,-7.5982,-7.6013,-7.6001,-7.5973,-7.5971,-7.597,-7.5969,0,-7.4836,-7.4983,-7.5113,-7.515,-7.5228,-7.5288,-7.5323,-7.5379,-7.5433,-7.5504,-7.5539,-7.562,-7.5664,-7.5727,-7.5733,-7.5671,-7.5883,-7.5799,-7.5894,-7.5894,-7.594,-7.5938,-7.6208,-7.5967,-7.5966,-7.5966,-7.5965,0,-7.469,-7.4766,-7.495,-7.5015,-7.5053,-7.5137,-7.522,-7.5294,-7.5355,-7.5365,-7.5419,-7.5404,-7.5511,-7.5428,-7.5576,-7.5494,-7.5539,-7.5558,-7.5565,-7.5576,-7.5483,-7.5637,-7.5891,-7.592,-7.5586,-7.5583,-7.558,0,-7.4454,-7.4645,-7.465,-7.4824,-7.4914,-7.4883,-7.4975,-7.503,-7.505,-7.5128,-7.5148,-7.5235,-7.5175,-7.5203,-7.5275,-7.5299,-7.5404,-7.5285,-7.5395,-7.5399,-7.5383,-7.5617,-7.5653,-7.5834,-7.554,-7.5544,-7.5547,0,-7.4273,-7.4367,-7.4397,-7.444,-7.4513,-7.4587,-7.4693,-7.4781,-7.4833,-7.4894,-7.4983,-7.5102,-7.5063,-7.5109,-7.5103,-7.5177,-7.5333,-7.5124,-7.5125,-7.5163,-7.5519,-7.5554,-7.5584,-7.5312,-7.5317,-7.5321,-7.5515,0,-7.4053,-7.415,-7.4232,-7.4323,-7.4382,-7.4489,-7.4505,-7.4564,-7.4555,-7.4573,-7.4701,-7.4745,-7.483,-7.4866,-7.4855,-7.5019,-7.4994,-7.4949,-7.4869,-7.5022,-7.5086,-7.5112,-7.4773,-7.477,-7.4769,-7.4767,0,0,-7.3822,-7.3961,-7.3961,-7.4064,-7.4114,-7.4078,-7.4192,-7.4235,-7.4322,-7.4356,-7.4312,-7.4487,-7.4523,-7.4678,-7.4726,-7.4759,-7.479,-7.4735,-7.4948,-7.4969,-7.4987,-7.5056,-7.5083,-7.4763,-7.4763,-7.4762,-7.4761,0,-7.3745,-7.3788,-7.3901,-7.3947,-7.4014,-7.4028,-7.4055,-7.4114,-7.4131,-7.4255,-7.4222,-7.4299,-7.4436,-7.4481,-7.4522,-7.4717,-7.4686,-7.4741,-7.4844,-7.4928,-7.4951,-7.4971,-7.5043,-7.5069,-7.4757,-7.4757,-7.4757,0,-7.3571,-7.3617,-7.3672,-7.3783,-7.3825,-7.3916,-7.3838,-7.3935,-7.4002,-7.3953,-7.4077,-7.4102,-7.4161,-7.4303,-7.4367,-7.4328,-7.4591,-7.4508,-7.452,-7.4528,-7.461,-7.4637,-7.4661,-7.4341,-7.4339,-7.4338,0,0,-7.3502,-7.3591,-7.364,-7.3767,-7.3797,-7.3818,-7.3866,-7.3862,-7.3917,-7.3939,-7.3971,-7.4024,-7.4104,-7.4157,-7.4232,-7.4386,-7.4398,-7.4456,-7.4476,-7.4492,-7.4508,-7.4594,-7.4621,-7.4332,-7.4332,-7.4332,0,0,-7.3468,-7.3531,-7.3512,-7.3662,-7.3718,-7.3771,-7.3848,-7.3824,-7.3894,-7.3883,-7.3875,-7.3889,-7.4022,-7.4046,-7.3971,-7.4203,-7.4124,-7.4142,-7.4183,-7.4208,-7.4227,-7.4218,-7.3893,0,0,0,0,0,-7.3397,-7.3524,-7.3506,-7.3533,-7.3669,-7.3782,-7.3799,-7.3798,-7.3743,-7.3804,-7.3827,-7.3789,-7.4005,-7.3938,-7.3963,-7.4047,-7.426,-7.4273,-7.4285,-7.4374,-7.44,-7.4422,0,0,0,0,0,0,-7.3408,-7.3441,-7.3502,-7.3561,-7.3592,-7.3777,-7.3684,-7.3687,-7.3736,-7.3728,-7.3786,-7.3791,-7.379,-7.3924,-7.3947,-7.4028,-7.3885,-7.4265,-7.4276,-7.4286,-7.4383,-7.4404,-7.4422,0,0,0,0,0,-7.3416,-7.3443,-7.3663,-7.3559,-7.3586,-7.3615,-7.3679,-7.3681,-7.3719,-7.3753,-7.3757,-7.3714,-7.3792,-7.3811,-7.3938,-7.4017,-7.3869,-7.3878,-7.4272,-7.4281,-7.4289,-7.4393,0,0,0,0,0,0,-7.3423,-7.3445,-7.3668,-7.3676,-7.3512,-7.3605,-7.3619,-7.3676,-7.3741,-7.3746,-7.368,-7.3672,-7.3795,-7.3809,-7.3824,-7.4014,-7.3856,-7.3865,-7.3871,-7.4279,-7.4286,-7.4291,0,0,0,0,0,0,-7.343,-7.3452,-7.3672,-7.3612,-7.3613,-7.3595,-7.3608,-7.3714,-7.3742,-7.3663,-7.3659,-7.3676,-7.3771,-7.3809,-7.382,-7.3986,-7.3846,-7.3855,-7.3861,-7.3864,-7.4284,-7.429,0,0,0,0,0,0,-7.3439,-7.3458,-7.361,-7.361,-7.3611,-7.37,-7.3688,-7.3827,-7.3694,-7.3661,-7.3681,-7.3676,-7.3772,-7.3783,-7.3818,-7.3979,-7.3984,-7.3847,-7.3852,-7.3856,-7.3859,0,0,0,0,0,0,0,-7.3446,-7.3324,-7.3621,-7.3609,-7.361,-7.375,-7.3752,-7.3754,-7.3693,-7.3688,-7.3683,-7.3678,-7.3799,-7.3808,-7.3817,-7.3973,0,0,-7.3846,-7.385,0,0,0,0,0,0,0,0,-7.3316,-7.3322,-7.3622,-7.3623,-7.3625,-7.375,-7.3752,-7.3753,-7.3692,-7.3688,-7.3684,-7.368,-7.3801,-7.3808,-7.3816,0,0,0,0,0,0,0,0,0,0,0,0,0,0,0,-7.3622,-7.3623,0,-7.375,-7.3752,-7.3753,-7.3691,-7.3688,-7.3685,-7.3682,-7.3803,-7.3809,-7.3815,0,0,0,0,0,0,0,0,0,0,0,0,0,0,0,0,0,0,0,0,0,0,0,0,0,0,0,0,0,0,0,0,0,0,0,0,0,0,0,0,0,0,0,0,0,0,0,0,0,0,0,0,0,0,0,0,0,0,0,0,0,0,0,0,0,0,0,0,0]}]]]